Wind from 064 at 2 knots gusting 7

Air temperature 8.9° C
Dewpoint 7.2° C

Last reported at 2014-Apr-17 14:28 UTC.
Time now 2014-Apr-17 15:37 UTC

Location: N 40°08' W 123°49'.
View on Google Maps.

See reports from other nearby stations

Tides Stations Pressure Air Temp Water Temp Dewpoint Dewpoint depression Visibility Wind Speed Wind Dir Waves Ship positions

  
sailing weather and tide predictions

EEL RIVER CAMP CA US weather

date/time (UTC)wind fromknots sea level pressurealtimeterstation pressurevisibilityair tempwater tempwave heightnotes
2014-Apr-17 14:28 064 2 gusting 7 8.9
2014-Apr-17 13:28 243 1 gusting 3 6.1
2014-Apr-17 12:28 300 1 gusting 2 6.1
2014-Apr-17 11:28 6.1
2014-Apr-17 10:28 264 1 gusting 3 7.2
2014-Apr-17 09:28 008 1 gusting 10 8.3
2014-Apr-17 08:28 079 4 gusting 11 10.0
2014-Apr-17 07:28 347 2 gusting 6 8.3
2014-Apr-17 06:28 069 3 gusting 7 10.0
2014-Apr-17 05:28 059 4 gusting 9 10.6
2014-Apr-17 04:28 036 6 gusting 13 11.7
2014-Apr-17 03:28 041 5 gusting 12 12.2
2014-Apr-17 02:28 053 6 gusting 12 14.4
2014-Apr-17 01:28 001 3 gusting 14 17.2
2014-Apr-17 00:28 009 6 gusting 13 18.9
2014-Apr-16 23:28 016 3 gusting 16 20.6
2014-Apr-16 22:28 327 10 gusting 19 18.9
2014-Apr-16 21:28 333 8 gusting 19 19.4
2014-Apr-16 20:28 023 6 gusting 18 20.0
2014-Apr-16 19:28 350 10 gusting 18 17.8
2014-Apr-16 18:28 006 7 gusting 14 16.1
2014-Apr-16 17:28 064 6 gusting 9 15.0
2014-Apr-16 16:28 075 3 gusting 10 13.9
2014-Apr-16 15:28 050 5 gusting 9 11.1
2014-Apr-16 14:28 034 5 gusting 9 8.9
2014-Apr-16 13:28 070 4 gusting 8 8.9
2014-Apr-16 12:28 091 1 gusting 6 8.9
2014-Apr-16 11:28 059 4 gusting 6 8.9
2014-Apr-16 10:28 079 3 gusting 8 8.9
2014-Apr-16 09:28 259 1 gusting 8 7.8
2014-Apr-16 08:28 075 3 gusting 9 8.9
2014-Apr-16 07:28 019 4 gusting 9 8.9
2014-Apr-16 06:28 026 6 gusting 13 9.4
2014-Apr-16 05:28 039 7 gusting 12 10.0
2014-Apr-16 04:28 067 2 gusting 8 11.1
2014-Apr-16 03:28 087 5 gusting 12 11.7
2014-Apr-16 02:28 065 3 gusting 16 13.3
2014-Apr-16 01:28 015 6 gusting 16 16.1
2014-Apr-16 00:28 019 4 gusting 12 18.3
2014-Apr-15 23:28 021 5 gusting 13 18.9
2014-Apr-15 22:28 026 6 gusting 16 19.4
2014-Apr-15 21:28 018 7 gusting 15 20.0
2014-Apr-15 20:28 042 5 gusting 13 19.4
2014-Apr-15 19:28 360 5 gusting 12 17.8
2014-Apr-15 18:28 012 6 gusting 13 15.6
2014-Apr-15 17:28 040 8 gusting 15 13.3
2014-Apr-15 16:28 049 6 gusting 15 11.1
2014-Apr-15 15:28 045 6 gusting 12 10.0